Wind_Speed
10 9 8 8 8 8 9 8 8 8 9 9 8 8 8 7 7 6 5 4 4 2 1 1 2 3 3 4 4 4 4 5 5 5 5 5 5 5 5 6 6 6 6
8 8 7 8 7 8 7 7 7 7 8 8 8 8 8 8 7 6 5 5 4 3 2 2 2 3 4 4 4 4 5 5 5 5 6 6 6 5 6 7 7 7 7
8 7 7 7 7 6 6 6 6 6 6 7 7 7 7 7 6 6 5 5 4 4 3 3 3 4 4 4 4 4 5 5 6 7 7 7 7 7 7 7 7 8 9
7 7 6 6 6 6 5 5 4 5 5 5 6 6 6 6 6 5 4 5 5 4 4 4 4 4 4 4 4 4 5 6 6 7 7 7 8 8 8 8 8 8 9
6 6 5 5 5 5 5 4 4 4 5 5 6 6 6 6 6 5 4 5 5 4 4 5 5 5 6 6 6 6 6 7 7 7 8 8 9 9 9 8 8 8 9
5 5 4 5 5 5 4 3 3 4 5 5 5 6 6 6 6 6 6 5 5 6 5 6 6 6 6 7 7 8 8 8 8 8 9 10 10 9 9 9 9 9 10
4 4 4 5 5 4 4 4 3 3 4 5 5 6 6 6 6 6 6 6 6 6 7 7 7 7 8 8 9 9 9 9 9 10 10 11 11 11 11 11 11 10 11
4 3 5 4 4 4 4 4 4 4 4 5 6 6 6 6 7 7 6 7 7 7 7 8 8 9 9 10 10 10 10 10 11 11 11 11 11 11 12 12 12 12 12
4 5 6 5 4 4 4 5 5 4 5 5 6 6 7 7 7 8 7 8 8 8 9 9 10 11 11 11 11 11 12 12 12 12 12 12 12 12 13 13 13 14 14
7 6 7 6 6 5 5 5 5 5 6 6 7 7 7 8 8 9 9 9 10 10 11 11 12 12 13 13 12 12 13 13 13 13 13 12 12 13 14 14 14 15 16
9 8 8 7 7 7 7 6 6 6 7 8 8 9 9 9 9 10 10 11 11 12 12 13 13 13 14 14 13 14 14 14 14 13 13 13 13 14 15 16 16 16 16
11 10 10 9 8 9 8 8 8 8 8 9 10 11 11 11 11 12 12 12 13 13 14 14 14 14 15 14 13 13 14 14 14 14 14 15 15 15 16 17 17 17 17
11 11 11 11 11 10 10 9 8 9 10 11 11 12 12 13 12 13 14 14 14 14 15 14 14 15 15 15 14 14 15 15 16 16 16 16 17 17 18 18 19 19 18
12 12 13 13 13 13 12 11 11 11 11 11 12 12 14 14 14 14 14 14 15 15 16 16 16 16 16 16 16 16 16 16 16 17 17 18 19 20 20 20 21 21 20
14 14 15 16 15 15 15 13 13 13 13 13 14 14 15 14 15 15 16 16 16 16 17 18 18 18 18 18 18 17 17 17 17 18 19 20 21 22 22 22 21 22 21
18 18 18 16 16 16 15 14 14 15 15 15 15 17 17 17 16 16 18 18 17 18 19 18 18 19 19 20 20 20 19 18 18 19 20 20 21 22 23 23 23 23 23
23 21 19 19 18 18 17 17 17 16 17 16 16 17 18 19 18 19 19 19 18 18 19 19 20 20 20 20 21 20 20 19 19 19 20 21 21 22 23 24 24 24 24
24 22 21 21 20 19 19 19 18 17 17 17 17 18 19 20 21 20 20 21 21 21 21 22 22 22 21 22 22 22 22 21 21 22 22 23 23 24 24 25 25 25 25
24 23 23 22 21 20 20 19 19 18 19 19 19 20 21 22 22 22 22 23 22 22 22 23 23 23 23 23 23 23 23 23 23 23 24 24 25 25 26 26 26 26 25
25 24 24 23 21 20 20 20 20 20 21 21 22 22 23 23 23 23 24 24 24 24 25 25 24 24 25 25 25 25 25 25 25 26 25 25 26 27 27 27 27 27 26
26 25 25 23 22 21 22 22 22 22 23 23 24 24 24 24 24 24 25 25 25 25 25 25 25 25 26 27 27 27 27 27 27 27 27 27 26 27 27 28 28 28 28
26 26 26 25 24 24 24 25 25 24 25 24 25 25 25 25 25 25 25 25 26 26 26 26 26 27 27 28 28 28 28 28 28 28 28 27 28 28 28 29 29 30 30
27 27 27 26 25 25 26 27 27 26 26 26 26 26 26 27 27 26 26 26 26 26 27 27 27 28 28 28 28 28 28 28 28 29 29 29 29 29 28 29 29 29 29
29 29 29 28 27 26 26 27 28 27 27 27 27 27 27 27 28 28 28 28 28 28 28 28 29 29 29 30 30 30 30 30 29 29 29 29 29 29 29 28 29 29 30
30 30 30 29 29 29 29 29 29 29 29 29 28 29 28 28 28 29 30 30 29 29 29 30 29 30 30 30 30 30 30 30 30 30 29 30 29 30 30 30 30 31 31
30 31 30 30 29 29 30 30 30 30 30 29 29 29 29 29 29 30 30 30 30 31 31 31 31 30 31 31 30 30 30 30 31 31 31 30 31 31 32 32 32 32 32
Wind_Direction
43 45 45 46 55 54 56 63 60 58 56 54 52 52 50 46 46 48 49 48 44 44 16 328 335 335 321 311 311 309 298 289 288 299 302 300 302 300 298 297 286 276 275
37 41 42 38 47 56 59 62 60 56 51 49 47 50 48 43 41 44 47 43 36 34 27 357 344 336 327 318 309 304 301 298 291 297 299 296 298 297 294 294 284 278 275
29 39 37 30 33 44 51 56 57 51 45 42 41 42 40 37 36 40 46 44 36 30 17 6 353 348 343 335 322 312 298 298 294 293 297 294 290 294 295 289 283 277 273
25 37 32 24 22 27 35 44 48 39 36 33 32 33 34 31 27 26 25 23 24 23 12 4 359 353 353 345 337 327 309 298 296 299 299 298 296 297 297 293 285 275 273
14 13 16 12 11 15 20 23 26 24 25 22 17 20 20 15 12 11 6 4 4 360 359 353 347 345 341 336 331 324 318 307 299 298 301 303 303 303 300 296 292 284 282
350 349 350 0 2 3 4 2 6 12 6 7 6 8 6 3 3 2 360 354 352 346 342 338 331 326 326 325 323 322 318 312 305 302 300 301 303 301 299 295 295 289 287
328 330 333 349 354 349 346 346 346 352 355 355 355 354 353 350 347 345 345 344 340 338 334 328 322 320 317 316 313 312 312 309 306 305 304 302 300 296 296 295 293 289 286
317 311 311 324 338 331 324 324 329 333 332 336 337 339 340 338 335 333 334 338 336 331 327 321 316 314 312 310 307 305 305 303 303 302 301 301 298 295 293 292 291 290 287
314 310 305 303 310 323 314 313 316 313 313 318 320 321 324 324 324 324 326 327 326 324 321 317 314 312 308 306 305 303 302 301 299 297 296 293 293 293 292 291 290 290 289
303 308 300 297 291 300 307 304 304 302 303 304 309 313 313 311 312 316 317 317 317 316 316 316 313 310 308 305 302 301 299 299 297 295 296 295 293 292 294 293 293 292 291
295 296 300 295 293 291 292 296 295 295 292 293 298 304 306 303 303 307 309 308 308 308 310 312 312 310 311 310 306 302 297 297 299 298 299 297 296 295 295 295 294 294 294
287 289 289 291 285 286 286 294 294 291 291 294 303 302 299 300 300 300 300 302 301 302 304 306 308 308 306 307 307 306 304 302 300 298 297 296 297 297 296 296 295 295 294
283 285 281 280 279 281 284 290 297 297 295 295 300 302 297 297 298 298 296 297 299 299 302 302 304 304 304 303 303 303 302 300 298 297 296 296 295 296 296 296 296 294 293
278 282 284 281 277 278 280 283 289 294 291 292 298 300 298 298 296 297 297 297 298 296 301 300 301 302 304 306 302 299 300 299 298 298 296 295 294 295 294 295 295 293 291
274 281 283 284 279 279 280 282 284 288 292 291 294 301 306 302 299 299 299 297 296 296 299 298 298 300 302 303 303 301 299 298 298 298 297 295 294 294 294 293 294 293 292
276 280 281 283 282 281 280 282 285 286 290 292 293 299 304 305 304 302 299 298 298 297 299 297 299 301 302 300 300 298 296 296 297 298 297 296 295 294 295 296 295 294 292
276 277 280 282 281 281 279 280 281 285 287 289 290 294 299 300 298 299 297 296 297 298 298 298 299 300 301 300 302 301 298 297 298 298 297 298 299 297 296 297 295 292 290
274 276 279 281 281 280 276 276 277 282 282 283 286 290 294 294 296 297 296 293 294 296 297 299 300 300 300 302 302 299 296 296 296 296 295 295 296 296 296 296 295 292 290
271 275 277 275 275 275 274 275 274 277 281 281 283 285 289 292 292 293 292 291 292 294 294 295 296 298 299 300 299 297 295 295 294 293 293 294 295 296 295 294 293 293 292
273 273 274 271 272 274 275 277 277 277 279 281 282 283 286 288 289 289 289 289 290 291 292 294 296 297 297 298 298 296 295 295 294 293 292 292 294 295 295 295 293 291 290
271 273 273 270 269 274 275 277 278 278 278 279 281 281 282 286 286 288 289 287 286 287 289 293 295 296 296 295 295 295 293 293 293 294 291 290 292 293 295 295 294 293 291
270 271 273 272 270 271 274 275 276 277 278 278 280 281 284 287 288 287 287 287 285 285 287 291 293 294 295 295 294 294 293 292 292 293 291 290 291 292 293 293 293 292 291
270 271 271 270 269 271 273 273 274 276 276 277 279 279 282 285 285 284 285 285 286 287 289 292 294 295 294 294 293 292 291 289 290 290 290 290 291 291 293 293 293 294 291
268 269 271 270 269 270 272 273 274 274 274 275 277 279 280 284 284 282 286 288 288 290 292 293 293 294 294 294 293 292 290 289 289 289 289 290 291 292 293 294 293 293 291
268 270 271 269 269 270 272 273 273 273 274 275 276 278 280 283 284 285 288 289 289 290 290 291 291 292 293 293 293 292 291 290 291 291 290 289 290 291 292 293 293 292 291
267 268 269 269 271 272 272 273 273 273 273 274 277 279 280 282 284 286 286 287 288 288 289 290 291 292 293 293 293 293 291 291 291 290 290 290 290 291 291 291 291 291 290
Height
5911 5910 5909 5908 5907 5906 5906 5906 5905 5904 5904 5903 5902 5901 5900 5899 5898 5897 5896 5895 5894 5894 5894 5894 5894 5893 5892 5892 5891 5891 5891 5890 5890 5890 5889 5888 5887 5886 5885 5884 5883 5882 5881
5912 5910 5910 5909 5907 5907 5907 5906 5906 5905 5905 5904 5903 5902 5901 5900 5899 5898 5897 5896 5895 5895 5894 5894 5893 5892 5891 5891 5890 5890 5890 5889 5888 5888 5887 5886 5885 5884 5883 5882 5881 5880 5880
5912 5910 5910 5909 5909 5908 5907 5907 5906 5906 5905 5905 5903 5902 5901 5900 5899 5899 5898 5897 5896 5895 5894 5893 5892 5891 5891 5890 5889 5889 5888 5887 5887 5886 5885 5884 5883 5882 5882 5880 5879 5878 5877
5912 5911 5910 5909 5909 5908 5907 5907 5906 5906 5905 5905 5904 5903 5902 5901 5900 5899 5898 5897 5896 5895 5894 5893 5892 5891 5890 5889 5888 5888 5887 5886 5885 5884 5883 5883 5881 5880 5879 5878 5877 5876 5875
5913 5912 5910 5909 5909 5908 5907 5907 5906 5906 5905 5904 5904 5903 5902 5901 5900 5899 5897 5897 5896 5894 5893 5892 5891 5890 5889 5888 5887 5886 5885 5884 5883 5882 5881 5880 5879 5878 5877 5876 5874 5873 5872
5912 5911 5910 5909 5908 5907 5907 5906 5906 5905 5904 5904 5903 5902 5901 5900 5899 5898 5897 5896 5895 5894 5892 5891 5890 5889 5888 5887 5886 5885 5883 5882 5881 5880 5879 5878 5877 5875 5874 5873 5872 5870 5869
5910 5910 5909 5908 5907 5907 5906 5906 5905 5904 5903 5903 5902 5901 5901 5900 5898 5897 5896 5895 5894 5892 5891 5890 5889 5888 5886 5885 5884 5882 5881 5880 5879 5878 5876 5875 5874 5873 5871 5870 5869 5867 5866
5908 5908 5908 5907 5906 5905 5905 5905 5904 5903 5902 5901 5901 5900 5899 5898 5897 5896 5895 5893 5892 5891 5889 5888 5887 5885 5884 5883 5881 5880 5878 5877 5876 5875 5873 5872 5871 5869 5868 5867 5865 5863 5862
5906 5906 5906 5905 5904 5903 5903 5903 5902 5901 5901 5900 5899 5898 5898 5897 5895 5894 5893 5891 5890 5889 5887 5886 5884 5882 5881 5880 5878 5877 5875 5874 5872 5871 5870 5868 5867 5866 5864 5862 5861 5860 5858
5904 5904 5904 5903 5902 5902 5901 5900 5900 5899 5899 5898 5897 5896 5895 5894 5893 5892 5890 5889 5888 5886 5884 5883 5881 5879 5877 5876 5874 5873 5872 5870 5869 5867 5866 5864 5863 5861 5860 5858 5856 5855 5854
5901 5901 5901 5901 5900 5899 5898 5898 5897 5897 5896 5895 5894 5893 5892 5891 5890 5889 5887 5886 5885 5883 5881 5880 5878 5876 5874 5872 5870 5869 5867 5866 5864 5863 5862 5860 5859 5857 5855 5854 5852 5850 5848
5898 5897 5897 5897 5897 5896 5895 5894 5893 5893 5893 5892 5891 5890 5889 5888 5886 5885 5884 5883 5881 5880 5878 5876 5874 5872 5870 5868 5866 5865 5863 5862 5860 5859 5857 5856 5854 5853 5851 5849 5847 5845 5843
5894 5894 5893 5893 5893 5892 5892 5891 5890 5890 5890 5889 5888 5886 5885 5883 5882 5881 5880 5879 5877 5876 5874 5872 5870 5868 5866 5864 5862 5861 5859 5857 5856 5854 5853 5851 5849 5848 5846 5844 5842 5840 5838
5889 5889 5889 5889 5889 5889 5888 5888 5887 5886 5885 5885 5884 5883 5881 5879 5878 5877 5875 5874 5873 5871 5870 5868 5866 5864 5862 5860 5858 5856 5854 5852 5851 5849 5847 5846 5844 5843 5841 5839 5836 5834 5832
5883 5884 5884 5885 5885 5884 5884 5883 5883 5882 5881 5881 5880 5879 5878 5875 5874 5872 5871 5869 5868 5867 5865 5864 5862 5860 5858 5856 5854 5852 5850 5848 5846 5844 5842 5841 5839 5837 5835 5833 5830 5828 5826
5878 5879 5879 5879 5879 5880 5880 5879 5879 5878 5877 5876 5876 5875 5873 5871 5869 5868 5866 5865 5863 5862 5860 5858 5857 5855 5853 5851 5849 5846 5844 5842 5840 5839 5837 5835 5833 5831 5829 5826 5824 5822 5820
5873 5873 5873 5873 5873 5874 5875 5875 5874 5874 5873 5872 5871 5870 5869 5867 5865 5863 5862 5860 5858 5857 5855 5853 5851 5849 5847 5845 5843 5840 5838 5837 5835 5833 5831 5829 5827 5824 5822 5820 5817 5815 5813
5867 5867 5867 5867 5867 5867 5868 5869 5868 5868 5867 5867 5866 5865 5864 5862 5860 5858 5856 5855 5854 5851 5849 5848 5845 5843 5841 5839 5837 5835 5832 5830 5829 5827 5825 5822 5820 5818 5816 5813 5811 5808 5806
5861 5861 5861 5860 5861 5861 5861 5862 5862 5862 5862 5862 5861 5860 5858 5856 5855 5853 5851 5849 5848 5846 5844 5841 5839 5837 5835 5832 5830 5828 5826 5824 5822 5820 5818 5815 5813 5811 5808 5806 5804 5801 5798
5854 5854 5854 5854 5854 5855 5855 5856 5856 5856 5855 5855 5854 5853 5852 5850 5849 5847 5845 5843 5841 5839 5837 5835 5832 5830 5828 5826 5823 5821 5819 5817 5815 5812 5810 5808 5805 5803 5800 5798 5795 5793 5791
5846 5847 5847 5847 5847 5848 5849 5849 5849 5849 5848 5848 5847 5846 5845 5843 5842 5840 5838 5836 5834 5832 5830 5828 5825 5823 5821 5818 5816 5814 5812 5809 5807 5805 5802 5800 5797 5794 5792 5789 5787 5784 5782
5839 5839 5839 5840 5840 5841 5841 5841 5841 5841 5840 5840 5839 5838 5837 5836 5834 5833 5831 5829 5827 5825 5823 5820 5818 5815 5813 5811 5808 5806 5803 5801 5799 5796 5794 5791 5789 5786 5783 5781 5779 5776 5774
5831 5831 5831 5832 5833 5833 5833 5833 5833 5833 5833 5832 5832 5831 5830 5828 5826 5825 5824 5821 5819 5817 5815 5813 5810 5808 5805 5803 5800 5797 5795 5793 5790 5788 5785 5783 5780 5778 5775 5772 5770 5768 5765
5822 5823 5823 5824 5825 5825 5825 5825 5825 5825 5825 5824 5824 5823 5822 5820 5818 5816 5815 5813 5811 5809 5807 5805 5803 5800 5797 5794 5792 5789 5786 5784 5781 5779 5777 5774 5772 5769 5766 5764 5761 5759 5756
5814 5814 5814 5815 5816 5816 5816 5816 5817 5817 5816 5816 5815 5815 5814 5812 5811 5809 5807 5805 5802 5800 5798 5796 5794 5791 5789 5786 5783 5780 5778 5775 5773 5770 5768 5766 5763 5760 5758 5755 5753 5750 5747
5804 5805 5805 5806 5806 5806 5807 5807 5807 5807 5807 5807 5807 5806 5805 5804 5802 5800 5798 5796 5794 5792 5789 5787 5785 5782 5780 5777 5774 5771 5769 5766 5764 5761 5759 5756 5754 5751 5749 5746 5743 5741 5738